Time,TemperatureF,DewpointF,PressureIn,WindDirection,WindDirectionDegrees,WindSpeedMPH,WindSpeedGustMPH,Humidity,HourlyPrecipIn,Conditions,Clouds,dailyrainin,SolarRadiationWatts/m^2,SoftwareType,DateUTC
2013-11-09 00:03:00,56.1,51.4,30.13,ENE,69,0.0,0.0,84,0.00,,,0.00,0.0,meteobridge,2013-11-09 06:03:00,
2013-11-09 00:08:00,56.1,51.4,30.13,ENE,69,0.0,0.0,84,0.00,,,0.00,0.0,meteobridge,2013-11-09 06:08:00,
2013-11-09 00:13:00,55.9,51.3,30.13,ENE,69,0.0,0.0,84,0.00,,,0.00,0.0,meteobridge,2013-11-09 06:13:00,
2013-11-09 00:18:00,55.9,51.3,30.13,ENE,68,0.0,0.0,84,0.00,,,0.00,0.0,meteobridge,2013-11-09 06:18:00,
2013-11-09 00:23:00,55.8,51.1,30.13,ENE,65,0.0,0.0,84,0.00,,,0.00,0.0,meteobridge,2013-11-09 06:23:00,
2013-11-09 00:28:00,55.8,51.3,30.13,ENE,65,0.0,0.0,85,0.00,,,0.00,0.0,meteobridge,2013-11-09 06:28:00,
2013-11-09 00:33:00,55.6,51.1,30.11,ENE,65,0.0,0.0,85,0.00,,,0.00,0.0,meteobridge,2013-11-09 06:33:00,
2013-11-09 00:39:00,55.4,50.9,30.11,ENE,65,0.0,0.0,85,0.00,,,0.00,0.0,meteobridge,2013-11-09 06:39:00,
2013-11-09 00:44:00,55.2,51.1,30.11,ENE,65,0.0,0.0,86,0.00,,,0.00,0.0,meteobridge,2013-11-09 06:44:00,
2013-11-09 00:49:00,55.0,50.9,30.11,ENE,65,0.0,0.0,86,0.00,,,0.00,0.0,meteobridge,2013-11-09 06:49:00,
2013-11-09 00:54:00,55.0,50.9,30.11,ENE,65,0.0,0.0,86,0.00,,,0.00,0.0,meteobridge,2013-11-09 06:54:00,
2013-11-09 00:59:00,54.9,51.1,30.11,ENE,65,0.0,0.0,87,0.00,,,0.00,0.0,meteobridge,2013-11-09 06:59:00,
2013-11-09 01:05:00,54.9,51.1,30.11,ENE,65,0.0,0.0,87,0.00,,,0.00,0.0,meteobridge,2013-11-09 07:05:00,
2013-11-09 01:10:00,54.9,51.1,30.11,ENE,65,0.0,0.0,87,0.00,,,0.00,0.0,meteobridge,2013-11-09 07:10:00,
2013-11-09 01:15:00,54.9,51.1,30.11,ENE,65,0.0,0.0,87,0.00,,,0.00,0.0,meteobridge,2013-11-09 07:15:00,
2013-11-09 01:20:00,54.9,51.1,30.11,ENE,64,0.0,0.0,87,0.00,,,0.00,0.0,meteobridge,2013-11-09 07:20:00,
2013-11-09 01:25:00,54.7,50.9,30.11,ENE,64,0.0,0.0,87,0.00,,,0.00,0.0,meteobridge,2013-11-09 07:25:00,
2013-11-09 01:30:00,54.7,50.9,30.10,ENE,64,0.0,0.0,87,0.00,,,0.00,0.0,meteobridge,2013-11-09 07:30:00,
2013-11-09 01:35:00,54.7,50.5,30.10,ENE,67,0.0,0.0,86,0.00,,,0.00,0.0,meteobridge,2013-11-09 07:35:00,
2013-11-09 01:41:00,54.7,50.5,30.10,ENE,67,0.0,0.0,86,0.00,,,0.00,0.0,meteobridge,2013-11-09 07:41:00,
2013-11-09 01:46:00,54.7,50.2,30.09,East,84,0.0,0.0,85,0.00,,,0.00,0.0,meteobridge,2013-11-09 07:46:00,
2013-11-09 01:51:00,54.7,50.0,30.09,ENE,76,0.0,0.0,84,0.00,,,0.00,0.0,meteobridge,2013-11-09 07:51:00,
2013-11-09 01:56:00,54.7,50.0,30.09,ENE,78,0.0,0.0,84,0.00,,,0.00,0.0,meteobridge,2013-11-09 07:56:00,
2013-11-09 02:01:00,54.5,49.5,30.09,East,96,0.0,0.0,83,0.00,,,0.00,0.0,meteobridge,2013-11-09 08:01:00,
2013-11-09 02:06:00,54.5,49.1,30.09,East,99,0.0,0.0,82,0.00,,,0.00,0.0,meteobridge,2013-11-09 08:06:00,
2013-11-09 02:11:00,54.5,49.1,30.09,East,98,0.0,0.0,82,0.00,,,0.00,0.0,meteobridge,2013-11-09 08:11:00,
2013-11-09 02:17:00,54.5,49.1,30.09,ESE,102,0.0,0.0,82,0.00,,,0.00,0.0,meteobridge,2013-11-09 08:17:00,
2013-11-09 02:22:00,54.3,48.9,30.09,ESE,102,0.0,0.0,82,0.00,,,0.00,0.0,meteobridge,2013-11-09 08:22:00,
2013-11-09 02:27:00,54.1,49.1,30.09,East,101,0.0,0.0,83,0.00,,,0.00,0.0,meteobridge,2013-11-09 08:27:00,
2013-11-09 02:32:00,54.0,49.3,30.08,East,94,0.0,0.0,84,0.00,,,0.00,0.0,meteobridge,2013-11-09 08:32:00,
2013-11-09 02:37:00,53.8,49.1,30.08,ENE,67,0.0,0.0,84,0.00,,,0.00,0.0,meteobridge,2013-11-09 08:37:00,
2013-11-09 02:43:00,53.8,49.5,30.08,ENE,66,0.0,0.0,85,0.00,,,0.00,0.0,meteobridge,2013-11-09 08:43:00,
2013-11-09 02:48:00,53.6,49.3,30.08,ENE,65,0.0,0.0,85,0.00,,,0.00,0.0,meteobridge,2013-11-09 08:48:00,
2013-11-09 02:53:00,53.6,49.3,30.08,ENE,60,0.0,0.0,85,0.00,,,0.00,0.0,meteobridge,2013-11-09 08:53:00,
2013-11-09 02:58:00,53.8,49.5,30.08,ENE,59,0.0,0.0,85,0.00,,,0.00,0.0,meteobridge,2013-11-09 08:58:00,
2013-11-09 03:03:00,54.0,49.6,30.08,ENE,59,0.0,0.0,85,0.00,,,0.00,0.0,meteobridge,2013-11-09 09:03:00,
2013-11-09 03:09:00,54.0,49.6,30.08,NE,56,0.0,0.0,85,0.00,,,0.00,0.0,meteobridge,2013-11-09 09:09:00,
2013-11-09 03:14:00,54.1,49.8,30.08,NE,56,0.0,0.0,85,0.00,,,0.00,0.0,meteobridge,2013-11-09 09:14:00,
2013-11-09 03:19:00,54.1,49.8,30.08,ENE,57,0.0,0.0,85,0.00,,,0.00,0.0,meteobridge,2013-11-09 09:19:00,
2013-11-09 03:25:00,54.0,49.6,30.08,ENE,57,0.0,0.0,85,0.00,,,0.00,0.0,meteobridge,2013-11-09 09:25:00,
2013-11-09 03:30:00,54.0,49.8,30.08,ENE,57,0.0,0.0,86,0.00,,,0.00,0.0,meteobridge,2013-11-09 09:30:00,
2013-11-09 03:35:00,54.1,50.0,30.08,ENE,57,0.0,0.0,86,0.00,,,0.00,0.0,meteobridge,2013-11-09 09:35:00,
2013-11-09 03:40:00,54.1,50.0,30.08,ENE,57,0.0,0.0,86,0.00,,,0.00,0.0,meteobridge,2013-11-09 09:40:00,
2013-11-09 03:46:00,54.1,50.0,30.06,ENE,58,0.0,0.0,86,0.00,,,0.00,0.0,meteobridge,2013-11-09 09:46:00,
2013-11-09 03:51:00,54.1,49.8,30.06,ENE,57,0.0,0.0,85,0.00,,,0.00,0.0,meteobridge,2013-11-09 09:51:00,
2013-11-09 03:56:00,54.3,49.8,30.06,ENE,57,0.0,4.0,85,0.00,,,0.00,0.0,meteobridge,2013-11-09 09:56:00,
2013-11-09 04:01:00,54.3,49.8,30.06,ENE,59,0.0,0.9,85,0.00,,,0.00,0.0,meteobridge,2013-11-09 10:01:00,
2013-11-09 04:06:00,54.3,49.6,30.06,NE,50,0.0,0.0,84,0.00,,,0.00,0.0,meteobridge,2013-11-09 10:06:00,
2013-11-09 04:11:00,54.3,49.6,30.06,ENE,57,0.0,0.0,84,0.00,,,0.00,0.0,meteobridge,2013-11-09 10:11:00,
2013-11-09 04:17:00,54.3,49.8,30.06,ENE,59,0.0,0.0,85,0.00,,,0.00,0.0,meteobridge,2013-11-09 10:17:00,
2013-11-09 04:22:00,54.1,49.8,30.06,ENE,73,0.0,0.0,85,0.00,,,0.00,0.0,meteobridge,2013-11-09 10:22:00,
2013-11-09 04:27:00,54.1,49.8,30.06,ENE,67,0.0,0.0,85,0.00,,,0.00,0.0,meteobridge,2013-11-09 10:27:00,
2013-11-09 04:32:00,54.1,49.8,30.06,ENE,71,0.0,0.0,85,0.00,,,0.00,0.0,meteobridge,2013-11-09 10:32:00,
2013-11-09 04:37:00,54.0,49.6,30.06,East,96,0.0,0.0,85,0.00,,,0.00,0.0,meteobridge,2013-11-09 10:37:00,
2013-11-09 04:42:00,54.0,49.6,30.06,East,93,0.0,0.0,85,0.00,,,0.00,0.0,meteobridge,2013-11-09 10:42:00,
2013-11-09 04:47:00,53.8,49.5,30.06,ENE,69,0.0,0.0,85,0.00,,,0.00,0.0,meteobridge,2013-11-09 10:47:00,
2013-11-09 04:52:00,54.0,49.6,30.06,ENE,61,0.0,0.9,85,0.00,,,0.00,0.0,meteobridge,2013-11-09 10:52:00,
2013-11-09 04:57:00,54.0,49.6,30.06,ENE,60,0.0,0.0,85,0.00,,,0.00,0.0,meteobridge,2013-11-09 10:57:00,
2013-11-09 05:03:00,54.0,49.6,30.06,ENE,59,0.0,0.9,85,0.00,,,0.00,0.0,meteobridge,2013-11-09 11:03:00,
2013-11-09 05:08:00,54.0,49.6,30.06,ENE,59,0.0,0.0,85,0.00,,,0.00,0.0,meteobridge,2013-11-09 11:08:00,
2013-11-09 05:13:00,53.8,49.5,30.06,ENE,57,0.0,0.0,85,0.00,,,0.00,0.0,meteobridge,2013-11-09 11:13:00,
2013-11-09 05:18:00,54.0,49.6,30.06,ENE,57,0.0,2.9,85,0.00,,,0.00,0.0,meteobridge,2013-11-09 11:18:00,
2013-11-09 05:24:00,54.0,49.6,30.06,ENE,57,0.0,0.0,85,0.00,,,0.00,0.0,meteobridge,2013-11-09 11:24:00,
2013-11-09 05:29:00,54.0,49.6,30.06,ENE,57,0.0,0.0,85,0.00,,,0.00,0.0,meteobridge,2013-11-09 11:29:00,
2013-11-09 05:34:00,53.8,49.6,30.06,ENE,57,0.0,0.0,86,0.00,,,0.00,0.0,meteobridge,2013-11-09 11:34:00,
2013-11-09 05:39:00,53.8,49.6,30.06,ENE,57,0.0,0.0,86,0.00,,,0.00,0.0,meteobridge,2013-11-09 11:39:00,
2013-11-09 05:45:00,53.8,49.6,30.07,ENE,57,0.0,0.0,86,0.00,,,0.00,0.0,meteobridge,2013-11-09 11:45:00,
2013-11-09 05:50:00,53.8,50.0,30.07,ENE,57,0.0,0.0,87,0.00,,,0.00,0.0,meteobridge,2013-11-09 11:50:00,
2013-11-09 05:55:00,53.6,49.8,30.07,ENE,57,0.0,0.0,87,0.00,,,0.00,0.0,meteobridge,2013-11-09 11:55:00,
2013-11-09 06:00:00,53.6,50.2,30.08,ENE,57,0.0,0.0,88,0.00,,,0.00,0.0,meteobridge,2013-11-09 12:00:00,
2013-11-09 06:05:00,53.8,50.4,30.08,ENE,57,0.0,0.0,88,0.00,,,0.00,0.0,meteobridge,2013-11-09 12:05:00,
2013-11-09 06:10:00,53.8,50.4,30.08,ENE,57,0.0,0.0,88,0.00,,,0.00,0.0,meteobridge,2013-11-09 12:10:00,
2013-11-09 06:15:00,53.8,50.4,30.08,ENE,58,0.0,0.0,88,0.00,,,0.00,0.0,meteobridge,2013-11-09 12:15:00,
2013-11-09 06:21:00,54.0,50.2,30.08,ENE,58,0.0,0.0,87,0.00,,,0.00,0.0,meteobridge,2013-11-09 12:21:00,
2013-11-09 06:26:00,54.0,50.2,30.08,ENE,59,0.0,0.0,87,0.00,,,0.00,0.0,meteobridge,2013-11-09 12:26:00,
2013-11-09 06:31:00,54.0,50.5,30.08,ENE,60,0.0,0.0,88,0.00,,,0.00,0.0,meteobridge,2013-11-09 12:31:00,
2013-11-09 06:36:00,54.0,50.5,30.08,ENE,73,0.0,0.0,88,0.00,,,0.00,0.0,meteobridge,2013-11-09 12:36:00,
2013-11-09 06:41:00,54.0,50.5,30.08,ENE,69,0.0,0.0,88,0.00,,,0.00,5.0,meteobridge,2013-11-09 12:41:00,
2013-11-09 06:46:00,54.0,50.5,30.08,ENE,72,0.0,0.0,88,0.00,,,0.00,11.0,meteobridge,2013-11-09 12:46:00,
2013-11-09 06:51:00,54.1,50.7,30.08,ENE,68,0.0,0.0,88,0.00,,,0.00,16.0,meteobridge,2013-11-09 12:51:00,
2013-11-09 06:56:00,54.1,50.7,30.08,ENE,61,0.0,0.0,88,0.00,,,0.00,19.0,meteobridge,2013-11-09 12:56:00,
2013-11-09 07:02:00,54.5,50.7,30.09,ENE,63,0.0,0.0,87,0.00,,,0.00,19.0,meteobridge,2013-11-09 13:02:00,
2013-11-09 07:07:00,54.7,50.9,30.09,ENE,78,0.0,0.0,87,0.00,,,0.00,21.0,meteobridge,2013-11-09 13:07:00,
2013-11-09 07:12:00,54.7,50.9,30.09,NE,53,0.0,0.0,87,0.00,,,0.00,19.0,meteobridge,2013-11-09 13:12:00,
2013-11-09 07:18:00,54.9,51.1,30.09,NE,56,0.0,0.0,87,0.00,,,0.00,21.0,meteobridge,2013-11-09 13:18:00,
2013-11-09 07:23:00,55.0,51.3,30.09,ENE,57,0.0,0.0,87,0.00,,,0.00,26.0,meteobridge,2013-11-09 13:23:00,
2013-11-09 07:28:00,55.0,51.3,30.09,ENE,57,0.0,0.0,87,0.00,,,0.00,28.0,meteobridge,2013-11-09 13:28:00,
2013-11-09 07:33:00,55.2,51.4,30.10,ENE,58,0.0,0.0,87,0.00,,,0.00,30.0,meteobridge,2013-11-09 13:33:00,
2013-11-09 07:39:00,55.2,51.4,30.10,ENE,59,0.0,0.0,87,0.00,,,0.00,35.0,meteobridge,2013-11-09 13:39:00,
2013-11-09 07:44:00,55.4,52.0,30.10,ENE,57,0.0,0.0,88,0.00,,,0.00,40.0,meteobridge,2013-11-09 13:44:00,
2013-11-09 07:49:00,55.6,52.2,30.10,ENE,59,0.0,0.0,88,0.00,,,0.00,53.0,meteobridge,2013-11-09 13:49:00,
2013-11-09 07:54:00,55.6,51.8,30.10,ENE,60,0.0,0.0,87,0.00,,,0.00,67.0,meteobridge,2013-11-09 13:54:00,
2013-11-09 07:59:00,55.8,52.0,30.11,ENE,61,0.0,0.0,87,0.00,,,0.00,83.0,meteobridge,2013-11-09 13:59:00,
2013-11-09 08:04:00,55.9,52.2,30.11,NE,53,0.0,0.0,87,0.00,,,0.00,97.0,meteobridge,2013-11-09 14:04:00,
2013-11-09 08:09:00,56.1,52.3,30.11,ENE,62,0.9,4.9,87,0.00,,,0.00,109.0,meteobridge,2013-11-09 14:09:00,
2013-11-09 08:14:00,56.5,52.7,30.11,ENE,59,0.0,2.0,87,0.00,,,0.00,123.0,meteobridge,2013-11-09 14:14:00,
2013-11-09 08:19:00,56.7,52.9,30.11,ENE,64,0.0,0.0,87,0.00,,,0.00,125.0,meteobridge,2013-11-09 14:19:00,
2013-11-09 08:24:00,56.8,53.1,30.11,ENE,66,0.0,0.9,87,0.00,,,0.00,130.0,meteobridge,2013-11-09 14:24:00,
2013-11-09 08:30:00,57.2,53.1,30.11,NE,48,0.0,0.0,86,0.00,,,0.00,128.0,meteobridge,2013-11-09 14:30:00,
2013-11-09 08:35:00,57.6,53.8,30.11,ESE,103,0.0,0.0,87,0.00,,,0.00,130.0,meteobridge,2013-11-09 14:35:00,
2013-11-09 08:40:00,57.7,54.0,30.11,ENE,63,0.0,0.0,87,0.00,,,0.00,142.0,meteobridge,2013-11-09 14:40:00,
2013-11-09 08:45:00,58.1,54.0,30.11,ENE,59,2.0,2.9,86,0.00,,,0.00,167.0,meteobridge,2013-11-09 14:45:00,
2013-11-09 08:50:00,58.5,54.3,30.11,ENE,58,0.0,0.9,86,0.00,,,0.00,188.0,meteobridge,2013-11-09 14:50:00,
2013-11-09 08:55:00,58.8,54.7,30.11,ENE,60,0.0,2.0,86,0.00,,,0.00,197.0,meteobridge,2013-11-09 14:55:00,
2013-11-09 09:01:00,59.4,55.2,30.11,ENE,72,0.0,0.0,86,0.00,,,0.00,200.0,meteobridge,2013-11-09 15:01:00,
2013-11-09 09:06:00,59.7,55.2,30.11,ENE,61,0.0,2.9,85,0.00,,,0.00,190.0,meteobridge,2013-11-09 15:06:00,
2013-11-09 09:11:00,60.1,55.6,30.11,East,101,0.0,0.0,85,0.00,,,0.00,178.0,meteobridge,2013-11-09 15:11:00,
2013-11-09 09:16:00,60.4,55.6,30.12,ENE,61,0.9,2.9,84,0.00,,,0.00,262.0,meteobridge,2013-11-09 15:16:00,
2013-11-09 09:21:00,60.8,55.6,30.12,ENE,66,0.0,2.9,83,0.00,,,0.00,202.0,meteobridge,2013-11-09 15:21:00,
2013-11-09 09:26:00,61.2,55.9,30.12,ENE,61,0.0,4.0,83,0.00,,,0.00,244.0,meteobridge,2013-11-09 15:26:00,
2013-11-09 09:31:00,61.9,56.7,30.12,ENE,63,0.0,2.9,83,0.00,,,0.00,434.0,meteobridge,2013-11-09 15:31:00,
2013-11-09 09:36:00,62.8,56.8,30.12,East,97,0.0,4.9,81,0.00,,,0.00,301.0,meteobridge,2013-11-09 15:36:00,
2013-11-09 09:41:00,64.2,58.3,30.12,ENE,61,0.0,2.0,81,0.00,,,0.00,663.0,meteobridge,2013-11-09 15:41:00,
2013-11-09 09:46:00,65.3,58.6,30.13,NE,49,0.9,6.9,79,0.00,,,0.00,700.0,meteobridge,2013-11-09 15:46:00,
2013-11-09 09:51:00,65.8,58.5,30.13,NNE,13,0.0,8.9,77,0.00,,,0.00,559.0,meteobridge,2013-11-09 15:51:00,
2013-11-09 09:56:00,66.6,59.2,30.13,East,88,2.0,8.1,77,0.00,,,0.00,555.0,meteobridge,2013-11-09 15:56:00,
2013-11-09 10:01:00,66.6,59.2,30.14,ENE,65,2.0,4.9,77,0.00,,,0.00,601.0,meteobridge,2013-11-09 16:01:00,
2013-11-09 10:06:00,67.3,59.5,30.14,ENE,67,0.0,0.9,76,0.00,,,0.00,406.0,meteobridge,2013-11-09 16:06:00,
2013-11-09 10:11:00,67.5,60.1,30.14,East,84,0.0,0.0,77,0.00,,,0.00,313.0,meteobridge,2013-11-09 16:11:00,
2013-11-09 10:17:00,67.5,59.5,30.13,East,92,0.0,4.0,76,0.00,,,0.00,343.0,meteobridge,2013-11-09 16:17:00,
2013-11-09 10:22:00,67.6,59.4,30.13,ENE,71,0.0,4.0,75,0.00,,,0.00,427.0,meteobridge,2013-11-09 16:22:00,
2013-11-09 10:27:00,67.8,59.2,30.13,East,89,4.9,6.0,74,0.00,,,0.00,390.0,meteobridge,2013-11-09 16:27:00,
2013-11-09 10:32:00,68.0,60.1,30.13,East,85,0.0,4.9,76,0.00,,,0.00,378.0,meteobridge,2013-11-09 16:32:00,
2013-11-09 10:37:00,68.5,61.0,30.13,ENE,62,2.0,2.0,77,0.00,,,0.00,450.0,meteobridge,2013-11-09 16:37:00,
2013-11-09 10:42:00,68.5,59.9,30.13,NE,43,0.0,2.9,74,0.00,,,0.00,396.0,meteobridge,2013-11-09 16:42:00,
2013-11-09 10:47:00,68.4,59.7,30.13,ESE,112,0.0,4.9,74,0.00,,,0.00,338.0,meteobridge,2013-11-09 16:47:00,
2013-11-09 10:52:00,68.4,59.7,30.13,ENE,71,0.0,0.9,74,0.00,,,0.00,345.0,meteobridge,2013-11-09 16:52:00,
2013-11-09 10:57:00,68.9,60.6,30.13,East,85,6.0,6.9,75,0.00,,,0.00,503.0,meteobridge,2013-11-09 16:57:00,
2013-11-09 11:02:00,70.2,61.9,30.12,East,88,0.0,0.9,75,0.00,,,0.00,729.0,meteobridge,2013-11-09 17:02:00,
2013-11-09 11:07:00,70.7,62.1,30.12,ESE,114,0.0,4.9,74,0.00,,,0.00,717.0,meteobridge,2013-11-09 17:07:00,
2013-11-09 11:12:00,70.3,60.8,30.12,SE,124,0.9,10.1,72,0.00,,,0.00,744.0,meteobridge,2013-11-09 17:12:00,
2013-11-09 11:17:00,70.9,61.0,30.12,ESE,117,0.0,8.1,71,0.00,,,0.00,784.0,meteobridge,2013-11-09 17:17:00,
2013-11-09 11:22:00,71.1,61.5,30.12,East,90,8.1,10.1,72,0.00,,,0.00,816.0,meteobridge,2013-11-09 17:22:00,
2013-11-09 11:27:00,70.9,61.0,30.12,ENE,74,0.9,8.9,71,0.00,,,0.00,791.0,meteobridge,2013-11-09 17:27:00,
2013-11-09 11:32:00,70.7,61.2,30.12,East,89,6.0,6.9,72,0.00,,,0.00,371.0,meteobridge,2013-11-09 17:32:00,
2013-11-09 11:37:00,70.3,61.3,30.12,East,84,2.9,4.9,73,0.00,,,0.00,364.0,meteobridge,2013-11-09 17:37:00,
2013-11-09 11:42:00,70.2,61.2,30.12,East,96,0.0,6.9,73,0.00,,,0.00,360.0,meteobridge,2013-11-09 17:42:00,
2013-11-09 11:47:00,70.3,60.8,30.11,ESE,105,0.0,4.0,72,0.00,,,0.00,316.0,meteobridge,2013-11-09 17:47:00,
2013-11-09 11:52:00,70.3,61.3,30.11,East,79,0.0,8.1,73,0.00,,,0.00,265.0,meteobridge,2013-11-09 17:52:00,
2013-11-09 11:57:00,70.2,61.2,30.11,East,100,0.9,2.0,73,0.00,,,0.00,234.0,meteobridge,2013-11-09 17:57:00,
2013-11-09 12:02:00,70.2,61.2,30.10,ENE,65,0.0,4.0,73,0.00,,,0.00,195.0,meteobridge,2013-11-09 18:02:00,
2013-11-09 12:07:00,70.2,61.2,30.10,SE,130,0.9,6.0,73,0.00,,,0.00,165.0,meteobridge,2013-11-09 18:07:00,
2013-11-09 12:13:00,70.0,61.3,30.10,East,98,0.0,0.0,74,0.00,,,0.00,149.0,meteobridge,2013-11-09 18:13:00,
2013-11-09 12:18:00,70.0,61.3,30.10,ESE,106,0.0,2.9,74,0.00,,,0.00,141.0,meteobridge,2013-11-09 18:18:00,
2013-11-09 12:23:00,70.0,61.7,30.10,ENE,67,0.0,0.0,75,0.00,,,0.00,176.0,meteobridge,2013-11-09 18:23:00,
2013-11-09 12:28:00,70.2,61.9,30.10,ESE,110,0.0,0.0,75,0.00,,,0.00,248.0,meteobridge,2013-11-09 18:28:00,
2013-11-09 12:33:00,70.5,61.9,30.09,ESE,116,0.0,2.0,74,0.00,,,0.00,297.0,meteobridge,2013-11-09 18:33:00,
2013-11-09 12:38:00,71.1,61.9,30.09,SE,125,0.0,0.0,73,0.00,,,0.00,316.0,meteobridge,2013-11-09 18:38:00,
2013-11-09 12:44:00,71.2,62.1,30.09,ESE,120,0.0,0.0,73,0.00,,,0.00,313.0,meteobridge,2013-11-09 18:44:00,
2013-11-09 12:49:00,71.2,62.1,30.09,East,101,0.0,2.9,73,0.00,,,0.00,301.0,meteobridge,2013-11-09 18:49:00,
2013-11-09 12:54:00,71.2,62.1,30.09,ESE,117,0.0,0.0,73,0.00,,,0.00,272.0,meteobridge,2013-11-09 18:54:00,
2013-11-09 12:59:00,71.4,62.8,30.09,East,96,0.0,0.0,74,0.00,,,0.00,274.0,meteobridge,2013-11-09 18:59:00,
2013-11-09 13:04:00,71.4,62.2,30.08,ESE,107,0.0,0.0,73,0.00,,,0.00,322.0,meteobridge,2013-11-09 19:04:00,
2013-11-09 13:09:00,71.8,63.0,30.08,ESE,107,0.0,0.0,74,0.00,,,0.00,322.0,meteobridge,2013-11-09 19:09:00,
2013-11-09 13:14:00,71.8,62.2,30.08,East,87,0.0,0.0,72,0.00,,,0.00,322.0,meteobridge,2013-11-09 19:14:00,
2013-11-09 13:19:00,71.6,62.1,30.08,East,80,0.0,0.0,72,0.00,,,0.00,301.0,meteobridge,2013-11-09 19:19:00,
2013-11-09 13:24:00,71.8,62.6,30.08,ESE,109,0.0,0.0,73,0.00,,,0.00,301.0,meteobridge,2013-11-09 19:24:00,
2013-11-09 13:29:00,71.8,61.5,30.07,East,89,0.0,0.0,70,0.00,,,0.00,306.0,meteobridge,2013-11-09 19:29:00,
2013-11-09 13:34:00,72.0,62.1,30.07,East,89,0.0,0.0,71,0.00,,,0.00,350.0,meteobridge,2013-11-09 19:34:00,
2013-11-09 13:39:00,72.3,62.8,30.07,ENE,68,0.0,0.0,72,0.00,,,0.00,418.0,meteobridge,2013-11-09 19:39:00,
2013-11-09 13:45:00,72.3,62.4,30.06,ENE,63,0.0,0.0,71,0.00,,,0.00,336.0,meteobridge,2013-11-09 19:45:00,
2013-11-09 13:50:00,72.3,62.8,30.06,ENE,63,0.0,0.0,72,0.00,,,0.00,316.0,meteobridge,2013-11-09 19:50:00,
2013-11-09 13:55:00,72.3,62.1,30.06,ENE,77,0.0,0.0,70,0.00,,,0.00,274.0,meteobridge,2013-11-09 19:55:00,
2013-11-09 14:00:00,72.1,62.6,30.06,ENE,68,0.0,0.0,72,0.00,,,0.00,352.0,meteobridge,2013-11-09 20:00:00,
2013-11-09 14:06:00,72.1,62.2,30.06,NE,49,0.0,0.0,71,0.00,,,0.00,304.0,meteobridge,2013-11-09 20:06:00,
2013-11-09 14:11:00,72.5,63.0,30.06,ENE,64,0.0,0.0,72,0.00,,,0.00,285.0,meteobridge,2013-11-09 20:11:00,
2013-11-09 14:16:00,72.7,62.2,30.06,ENE,59,0.0,0.0,70,0.00,,,0.00,283.0,meteobridge,2013-11-09 20:16:00,
2013-11-09 14:21:00,72.7,63.5,30.06,East,82,0.0,0.0,73,0.00,,,0.00,234.0,meteobridge,2013-11-09 20:21:00,
2013-11-09 14:26:00,72.3,62.4,30.06,East,83,0.0,0.0,71,0.00,,,0.00,227.0,meteobridge,2013-11-09 20:26:00,
2013-11-09 14:31:00,72.3,63.1,30.06,East,86,0.0,0.0,73,0.00,,,0.00,234.0,meteobridge,2013-11-09 20:31:00,
2013-11-09 14:36:00,72.3,62.8,30.06,East,98,0.0,0.0,72,0.00,,,0.00,225.0,meteobridge,2013-11-09 20:36:00,
2013-11-09 14:42:00,72.3,62.8,30.06,East,86,0.0,0.0,72,0.00,,,0.00,190.0,meteobridge,2013-11-09 20:42:00,
2013-11-09 14:47:00,72.3,62.8,30.06,ENE,78,0.0,0.0,72,0.00,,,0.00,149.0,meteobridge,2013-11-09 20:47:00,
2013-11-09 14:52:00,72.3,63.1,30.06,ESE,119,0.0,0.9,73,0.00,,,0.00,185.0,meteobridge,2013-11-09 20:52:00,
2013-11-09 14:57:00,72.3,63.1,30.06,ESE,112,0.0,0.0,73,0.00,,,0.00,192.0,meteobridge,2013-11-09 20:57:00,
2013-11-09 15:02:00,72.3,63.1,30.06,ENE,76,0.0,0.0,73,0.00,,,0.00,202.0,meteobridge,2013-11-09 21:02:00,
2013-11-09 15:07:00,72.3,62.8,30.06,ESE,104,0.0,2.9,72,0.00,,,0.00,172.0,meteobridge,2013-11-09 21:07:00,
2013-11-09 15:12:00,72.5,63.7,30.06,East,96,0.0,0.0,74,0.00,,,0.00,181.0,meteobridge,2013-11-09 21:12:00,
2013-11-09 15:17:00,72.3,62.8,30.06,SE,138,0.0,0.0,72,0.00,,,0.00,211.0,meteobridge,2013-11-09 21:17:00,
2013-11-09 15:22:00,72.7,63.1,30.06,ESE,118,0.0,4.9,72,0.00,,,0.00,211.0,meteobridge,2013-11-09 21:22:00,
2013-11-09 15:28:00,72.7,62.2,30.06,SE,142,0.0,6.0,70,0.00,,,0.00,204.0,meteobridge,2013-11-09 21:28:00,
2013-11-09 15:33:00,73.2,62.8,30.06,ESE,114,0.0,0.0,70,0.00,,,0.00,248.0,meteobridge,2013-11-09 21:33:00,
2013-11-09 15:38:00,73.0,63.1,30.06,SE,127,0.0,0.9,71,0.00,,,0.00,134.0,meteobridge,2013-11-09 21:38:00,
2013-11-09 15:43:00,72.7,62.8,30.06,SSE,152,0.0,6.0,71,0.00,,,0.00,97.0,meteobridge,2013-11-09 21:43:00,
2013-11-09 15:48:00,72.1,62.6,30.06,ESE,116,0.0,0.9,72,0.00,,,0.00,111.0,meteobridge,2013-11-09 21:48:00,
2013-11-09 15:53:00,72.0,62.4,30.06,SE,142,0.0,2.9,72,0.00,,,0.00,120.0,meteobridge,2013-11-09 21:53:00,
2013-11-09 15:58:00,71.8,62.6,30.06,SE,144,0.0,0.0,73,0.00,,,0.00,98.0,meteobridge,2013-11-09 21:58:00,
2013-11-09 16:03:00,71.6,63.0,30.06,SE,139,0.0,4.9,74,0.00,,,0.00,76.0,meteobridge,2013-11-09 22:03:00,
2013-11-09 16:08:00,71.4,62.8,30.06,SE,144,0.0,4.9,74,0.00,,,0.00,91.0,meteobridge,2013-11-09 22:08:00,
2013-11-09 16:13:00,71.2,63.0,30.06,SE,142,0.0,2.9,75,0.00,,,0.00,93.0,meteobridge,2013-11-09 22:13:00,
2013-11-09 16:18:00,71.1,63.1,30.06,ESE,112,0.0,0.9,76,0.00,,,0.00,97.0,meteobridge,2013-11-09 22:18:00,
2013-11-09 16:23:00,70.9,63.0,30.06,SE,139,0.0,2.0,76,0.00,,,0.00,97.0,meteobridge,2013-11-09 22:23:00,
2013-11-09 16:28:00,70.7,62.4,30.06,ESE,119,0.0,2.9,75,0.00,,,0.00,84.0,meteobridge,2013-11-09 22:28:00,
2013-11-09 16:33:00,70.5,63.0,30.06,ESE,121,0.0,0.0,77,0.00,,,0.00,77.0,meteobridge,2013-11-09 22:33:00,
2013-11-09 16:38:00,70.3,62.8,30.06,SE,128,0.0,0.0,77,0.00,,,0.00,63.0,meteobridge,2013-11-09 22:38:00,
2013-11-09 16:44:00,70.3,63.1,30.06,ESE,118,0.0,0.0,78,0.00,,,0.00,60.0,meteobridge,2013-11-09 22:44:00,
2013-11-09 16:49:00,70.2,63.0,30.06,ESE,118,0.0,0.0,78,0.00,,,0.00,49.0,meteobridge,2013-11-09 22:49:00,
2013-11-09 16:54:00,70.2,63.3,30.06,ESE,118,0.0,0.0,79,0.00,,,0.00,37.0,meteobridge,2013-11-09 22:54:00,
2013-11-09 16:59:00,70.0,63.1,30.06,ESE,118,0.0,0.0,79,0.00,,,0.00,33.0,meteobridge,2013-11-09 22:59:00,
2013-11-09 17:05:00,69.6,63.1,30.06,ESE,117,0.0,0.0,80,0.00,,,0.00,28.0,meteobridge,2013-11-09 23:05:00,
2013-11-09 17:10:00,69.4,63.0,30.06,SE,130,0.0,0.0,80,0.00,,,0.00,19.0,meteobridge,2013-11-09 23:10:00,
2013-11-09 17:15:00,69.3,62.8,30.07,SE,130,0.0,0.0,80,0.00,,,0.00,12.0,meteobridge,2013-11-09 23:15:00,
2013-11-09 17:20:00,69.1,62.6,30.07,SE,129,0.0,0.0,80,0.00,,,0.00,9.0,meteobridge,2013-11-09 23:20:00,
2013-11-09 17:25:00,68.9,62.8,30.07,SE,129,0.0,0.0,81,0.00,,,0.00,7.0,meteobridge,2013-11-09 23:25:00,
2013-11-09 17:31:00,68.7,62.6,30.07,SE,128,0.0,0.0,81,0.00,,,0.00,0.0,meteobridge,2013-11-09 23:31:00,
2013-11-09 17:36:00,68.5,62.8,30.07,ESE,119,0.0,0.0,82,0.00,,,0.00,0.0,meteobridge,2013-11-09 23:36:00,
2013-11-09 17:41:00,68.4,62.6,30.07,ESE,118,0.0,0.0,82,0.00,,,0.00,0.0,meteobridge,2013-11-09 23:41:00,
2013-11-09 17:46:00,68.4,63.0,30.07,ESE,117,0.0,0.0,83,0.00,,,0.00,0.0,meteobridge,2013-11-09 23:46:00,
2013-11-09 17:52:00,68.2,62.8,30.07,ESE,107,0.0,0.0,83,0.00,,,0.00,0.0,meteobridge,2013-11-09 23:52:00,
2013-11-09 17:57:00,68.0,62.6,30.07,ESE,102,0.0,0.0,83,0.00,,,0.00,0.0,meteobridge,2013-11-09 23:57:00,
2013-11-09 18:02:00,67.8,62.8,30.08,ESE,102,0.0,0.0,84,0.00,,,0.00,0.0,meteobridge,2013-11-10 00:02:00,
2013-11-09 18:07:00,67.6,62.6,30.08,ESE,102,0.0,0.0,84,0.00,,,0.00,0.0,meteobridge,2013-11-10 00:07:00,
2013-11-09 18:12:00,67.6,63.0,30.08,ESE,102,0.0,0.0,85,0.00,,,0.00,0.0,meteobridge,2013-11-10 00:12:00,
2013-11-09 18:17:00,67.5,62.8,30.08,ESE,102,0.0,0.0,85,0.00,,,0.00,0.0,meteobridge,2013-11-10 00:17:00,
2013-11-09 18:23:00,67.5,62.8,30.08,ESE,102,0.0,0.0,85,0.00,,,0.00,0.0,meteobridge,2013-11-10 00:23:00,
2013-11-09 18:28:00,67.5,63.1,30.08,ESE,102,0.0,0.0,86,0.00,,,0.00,0.0,meteobridge,2013-11-10 00:28:00,
2013-11-09 18:33:00,67.3,63.3,30.08,ESE,102,0.0,0.0,87,0.00,,,0.00,0.0,meteobridge,2013-11-10 00:33:00,
2013-11-09 18:38:00,67.3,63.3,30.08,ESE,102,0.0,0.0,87,0.00,,,0.00,0.0,meteobridge,2013-11-10 00:38:00,
2013-11-09 18:43:00,67.1,63.1,30.08,ESE,102,0.0,0.0,87,0.00,,,0.00,0.0,meteobridge,2013-11-10 00:43:00,
2013-11-09 18:48:00,66.9,63.0,30.08,ESE,102,0.0,0.0,87,0.00,,,0.00,0.0,meteobridge,2013-11-10 00:48:00,
2013-11-09 18:53:00,66.9,63.0,30.08,ESE,102,0.0,0.0,87,0.00,,,0.00,0.0,meteobridge,2013-11-10 00:53:00,
2013-11-09 18:59:00,66.9,63.0,30.08,ESE,102,0.0,0.0,87,0.00,,,0.00,0.0,meteobridge,2013-11-10 00:59:00,
2013-11-09 19:04:00,66.7,62.8,30.08,ESE,102,0.0,0.0,87,0.00,,,0.00,0.0,meteobridge,2013-11-10 01:04:00,
2013-11-09 19:09:00,66.7,62.8,30.08,East,98,0.0,0.0,87,0.00,,,0.00,0.0,meteobridge,2013-11-10 01:09:00,
2013-11-09 19:14:00,66.7,62.8,30.09,ENE,72,0.0,0.0,87,0.00,,,0.00,0.0,meteobridge,2013-11-10 01:14:00,
2013-11-09 19:19:00,66.7,62.4,30.09,ENE,78,0.0,0.0,86,0.00,,,0.00,0.0,meteobridge,2013-11-10 01:19:00,
2013-11-09 19:24:00,66.7,62.4,30.09,ENE,78,0.0,0.0,86,0.00,,,0.00,0.0,meteobridge,2013-11-10 01:24:00,
2013-11-09 19:29:00,66.7,62.4,30.09,East,80,0.0,0.0,86,0.00,,,0.00,0.0,meteobridge,2013-11-10 01:29:00,
2013-11-09 19:35:00,66.7,62.8,30.09,East,86,0.0,0.0,87,0.00,,,0.00,0.0,meteobridge,2013-11-10 01:35:00,
2013-11-09 19:40:00,66.6,62.2,30.09,East,99,0.0,0.0,86,0.00,,,0.00,0.0,meteobridge,2013-11-10 01:40:00,
2013-11-09 19:45:00,66.6,62.2,30.09,East,96,0.0,0.0,86,0.00,,,0.00,0.0,meteobridge,2013-11-10 01:45:00,
2013-11-09 19:50:00,66.6,61.9,30.09,East,100,0.0,0.0,85,0.00,,,0.00,0.0,meteobridge,2013-11-10 01:50:00,
2013-11-09 19:55:00,66.7,62.1,30.09,SE,137,0.0,0.0,85,0.00,,,0.00,0.0,meteobridge,2013-11-10 01:55:00,
2013-11-09 20:00:00,66.6,61.9,30.10,SE,136,0.0,0.0,85,0.00,,,0.00,0.0,meteobridge,2013-11-10 02:00:00,
2013-11-09 20:05:00,66.6,61.9,30.10,ESE,109,0.0,0.0,85,0.00,,,0.00,0.0,meteobridge,2013-11-10 02:05:00,
2013-11-09 20:10:00,66.6,61.9,30.10,ESE,107,0.0,0.0,85,0.00,,,0.00,0.0,meteobridge,2013-11-10 02:10:00,
2013-11-09 20:15:00,66.4,61.7,30.10,East,92,0.0,0.0,85,0.00,,,0.00,0.0,meteobridge,2013-11-10 02:15:00,
2013-11-09 20:21:00,66.4,61.7,30.10,East,81,0.0,0.0,85,0.00,,,0.00,0.0,meteobridge,2013-11-10 02:21:00,
2013-11-09 20:26:00,66.4,61.7,30.10,ENE,63,0.0,0.0,85,0.00,,,0.00,0.0,meteobridge,2013-11-10 02:26:00,
2013-11-09 20:31:00,66.4,61.7,30.11,ENE,77,0.0,0.0,85,0.00,,,0.00,0.0,meteobridge,2013-11-10 02:31:00,
2013-11-09 20:36:00,66.4,61.7,30.11,East,86,0.0,0.0,85,0.00,,,0.00,0.0,meteobridge,2013-11-10 02:36:00,
2013-11-09 20:41:00,66.2,61.5,30.11,East,86,0.0,0.0,85,0.00,,,0.00,0.0,meteobridge,2013-11-10 02:41:00,
2013-11-09 20:46:00,66.2,61.9,30.11,East,87,0.0,0.0,86,0.00,,,0.00,0.0,meteobridge,2013-11-10 02:46:00,
2013-11-09 20:51:00,66.0,61.7,30.11,East,88,0.0,0.0,86,0.00,,,0.00,0.0,meteobridge,2013-11-10 02:51:00,
2013-11-09 20:56:00,65.8,61.5,30.11,East,88,0.0,0.0,86,0.00,,,0.00,0.0,meteobridge,2013-11-10 02:56:00,
2013-11-09 21:01:00,65.8,61.5,30.11,East,88,0.0,0.0,86,0.00,,,0.00,0.0,meteobridge,2013-11-10 03:01:00,
2013-11-09 21:07:00,65.8,61.9,30.11,ENE,69,0.0,0.0,87,0.00,,,0.00,0.0,meteobridge,2013-11-10 03:07:00,
2013-11-09 21:12:00,65.7,61.7,30.11,ENE,61,0.0,0.0,87,0.00,,,0.00,0.0,meteobridge,2013-11-10 03:12:00,
2013-11-09 21:17:00,65.7,61.7,30.12,ENE,64,0.0,0.0,87,0.00,,,0.00,0.0,meteobridge,2013-11-10 03:17:00,
2013-11-09 21:22:00,65.7,61.7,30.12,East,85,0.0,0.0,87,0.00,,,0.00,0.0,meteobridge,2013-11-10 03:22:00,
2013-11-09 21:27:00,65.7,61.7,30.12,East,88,0.0,0.0,87,0.00,,,0.00,0.0,meteobridge,2013-11-10 03:27:00,
2013-11-09 21:32:00,65.7,61.7,30.12,ESE,113,0.0,0.0,87,0.00,,,0.00,0.0,meteobridge,2013-11-10 03:32:00,
2013-11-09 21:38:00,65.5,61.5,30.12,ENE,61,0.0,0.0,87,0.00,,,0.00,0.0,meteobridge,2013-11-10 03:38:00,
2013-11-09 21:43:00,65.5,61.5,30.12,ESE,119,0.0,0.0,87,0.00,,,0.00,0.0,meteobridge,2013-11-10 03:43:00,
2013-11-09 21:48:00,65.5,61.5,30.12,East,101,0.0,0.0,87,0.00,,,0.00,0.0,meteobridge,2013-11-10 03:48:00,
2013-11-09 21:53:00,65.5,61.5,30.12,ENE,69,0.0,0.0,87,0.00,,,0.00,0.0,meteobridge,2013-11-10 03:53:00,
2013-11-09 21:59:00,65.3,61.3,30.12,ENE,68,0.0,0.0,87,0.00,,,0.00,0.0,meteobridge,2013-11-10 03:59:00,
2013-11-09 22:04:00,65.1,61.2,30.12,ENE,65,0.0,0.0,87,0.00,,,0.00,0.0,meteobridge,2013-11-10 04:04:00,
2013-11-09 22:09:00,65.1,61.5,30.12,ENE,64,0.0,0.0,88,0.00,,,0.00,0.0,meteobridge,2013-11-10 04:09:00,
2013-11-09 22:14:00,64.9,61.3,30.12,ENE,62,0.0,0.0,88,0.00,,,0.00,0.0,meteobridge,2013-11-10 04:14:00,
2013-11-09 22:20:00,64.9,61.3,30.12,ENE,59,0.0,0.0,88,0.00,,,0.00,0.0,meteobridge,2013-11-10 04:20:00,
2013-11-09 22:25:00,64.9,61.3,30.12,ENE,57,0.0,0.0,88,0.00,,,0.00,0.0,meteobridge,2013-11-10 04:25:00,
2013-11-09 22:30:00,64.8,61.2,30.12,ENE,57,0.0,0.0,88,0.00,,,0.00,0.0,meteobridge,2013-11-10 04:30:00,
2013-11-09 22:35:00,64.8,61.2,30.12,ENE,57,0.0,0.0,88,0.00,,,0.00,0.0,meteobridge,2013-11-10 04:35:00,
2013-11-09 22:41:00,64.8,61.2,30.12,ENE,61,0.0,0.0,88,0.00,,,0.00,0.0,meteobridge,2013-11-10 04:41:00,
2013-11-09 22:46:00,64.8,61.2,30.12,ENE,71,0.0,2.0,88,0.00,,,0.00,0.0,meteobridge,2013-11-10 04:46:00,
2013-11-09 22:51:00,64.6,61.0,30.12,ENE,57,0.0,2.0,88,0.00,,,0.00,0.0,meteobridge,2013-11-10 04:51:00,
2013-11-09 22:56:00,64.6,61.3,30.12,NE,48,0.0,0.0,89,0.00,,,0.00,0.0,meteobridge,2013-11-10 04:56:00,
2013-11-09 23:01:00,64.6,61.0,30.12,NE,56,0.0,2.0,88,0.00,,,0.00,0.0,meteobridge,2013-11-10 05:01:00,
2013-11-09 23:02:00,64.6,61.3,30.12,NE,56,0.0,0.0,89,0.00,,,0.00,0.0,meteobridge,2013-11-10 05:02:00,
2013-11-09 23:03:00,64.6,61.0,30.12,North,355,0.0,0.0,88,0.00,,,0.00,0.0,meteobridge,2013-11-10 05:03:00,
2013-11-09 23:04:00,64.6,61.3,30.12,ENE,62,0.0,0.0,89,0.00,,,0.00,0.0,meteobridge,2013-11-10 05:04:00,
2013-11-09 23:09:00,64.6,61.0,30.12,ENE,59,0.0,0.9,88,0.00,,,0.00,0.0,meteobridge,2013-11-10 05:09:00,
2013-11-09 23:14:00,64.6,61.3,30.12,ENE,59,0.0,0.0,89,0.00,,,0.00,0.0,meteobridge,2013-11-10 05:14:00,
2013-11-09 23:19:00,64.6,61.3,30.12,ENE,64,0.0,0.0,89,0.00,,,0.00,0.0,meteobridge,2013-11-10 05:19:00,
2013-11-09 23:24:00,64.4,61.2,30.12,ENE,61,0.0,0.0,89,0.00,,,0.00,0.0,meteobridge,2013-11-10 05:24:00,
2013-11-09 23:29:00,64.4,61.2,30.12,ENE,57,0.0,0.0,89,0.00,,,0.00,0.0,meteobridge,2013-11-10 05:29:00,
2013-11-09 23:34:00,64.4,61.2,30.12,ENE,58,0.0,0.0,89,0.00,,,0.00,0.0,meteobridge,2013-11-10 05:34:00,
2013-11-09 23:39:00,64.4,61.2,30.12,ENE,74,0.0,0.0,89,0.00,,,0.00,0.0,meteobridge,2013-11-10 05:39:00,
2013-11-09 23:44:00,64.4,61.2,30.12,ENE,67,0.0,0.0,89,0.00,,,0.00,0.0,meteobridge,2013-11-10 05:44:00,
2013-11-09 23:49:00,64.4,61.2,30.12,ENE,64,0.0,0.0,89,0.00,,,0.00,0.0,meteobridge,2013-11-10 05:49:00,
2013-11-09 23:54:00,64.4,61.2,30.12,ENE,63,0.0,0.0,89,0.00,,,0.00,0.0,meteobridge,2013-11-10 05:54:00,
2013-11-09 23:59:00,64.4,61.2,30.12,ENE,61,0.0,0.0,89,0.00,,,0.00,0.0,meteobridge,2013-11-10 05:59:00,